This demonstration page uses our WeatherBlox Daily Observations layout. Learn more.

41.55636, -103.73856

Hourly Observations for April 1, 2019

Temp ( °F °C ) Dew Point ( °F °C ) Humidity (%) Winds ( mph kmh ) Pressure ( in mb ) Visibility ( mi km ) Precip ( " mm )
12:58 am 00:58 Clear 46 7.9 22 -5.3 39 39 NE 5 7 30.19 1022 10 16.0934 0 0
1:58 am 01:58 Clear 42 5.4 24 -4.2 50 50 NE 5 7 30.2 1023 10 16.0934 0 0
2:58 am 02:58 Clear 41 5.2 22 -5.6 46 46 E 5 7 30.19 1023 10 16.0934 0 0
3:58 am 03:58 Clear 40 4.4 21 -6.2 46 46 SE 3 6 30.19 1022 10 16.0934 0 0
4:58 am 04:58 Clear 34 1.1 23 -4.9 65 65 S 8 13 30.19 1022 10 16.0934 0 0
5:58 am 05:58 Clear 33 0.5 23 -4.8 68 68 SW 12 19 30.15 1021 10 16.0934 0 0
6:58 am 06:58 Clear 34 1.1 24 -4.2 68 68 WSW 13 20 30.12 1020 10 16.0934 0 0
7:58 am 07:58 Clear 36 2 24 -4.4 63 63 WSW 14 22 30.09 1019 10 16.0934 0 0
8:58 am 08:58 Clear 35 1.5 23 -4.8 63 63 WSW 15 24 30.07 1018 10 16.0934 0 0
9:58 am 09:58 Clear 33 0.8 24 -4.7 67 67 WSW 13 20 30.06 1018 10 16.0934 0 0
10:58 am 10:58 Clear 34 0.9 23 -4.8 66 66 WSW 15 24 30.05 1018 10 16.0934 0 0
11:58 am 11:58 Clear 32 0.1 24 -4.4 72 72 W 8 13 30.06 1018 10 16.0934 0 0
12:58 pm 12:58 Sunny 32 -0.1 23 -5.1 69 69 W 6 9 30.06 1018 10 16.0934 0 0
1:58 pm 13:58 Sunny 38 3.5 24 -4.2 57 57 W 12 19 30.04 1017 10 16.0934 0 0
2:58 pm 14:58 Mostly Sunny 40 4.7 24 -4.7 51 51 W 18 30 30.03 1017 10 16.0934 0 0
3:58 pm 15:58 Partly Cloudy 46 7.5 24 -4.7 42 42 WNW 22 35 30.01 1016 10 16.0934 0 0
4:58 pm 16:58 Partly Cloudy 48 8.7 23 -4.8 38 38 WNW 25 41 30.02 1017 10 16.0934 0 0
5:58 pm 17:58 Partly Cloudy 48 8.9 25 -3.8 41 41 NNW 23 37 30.02 1017 10 16.0934 0 0
6:58 pm 18:58 Mostly Cloudy 46 7.7 28 -2.5 49 49 NW 20 31 30.01 1016 10 16.0934 0 0
7:58 pm 19:58 Mostly Cloudy 44 6.6 26 -3.4 49 49 NW 21 33 30.01 1016 10 16.0934 0 0
8:58 pm 20:58 Mostly Cloudy with Light Showers 44 6.8 28 -2.5 52 52 NW 15 24 30.02 1017 10 16.0934 0 0
9:58 pm 21:58 Partly Cloudy 47 8.2 24 -4.7 40 40 NNW 21 33 30.01 1016 10 16.0934 0 0
10:58 pm 22:58 Mostly Sunny 45 7.2 27 -2.9 49 49 N 18 30 30.01 1016 10 16.0934 0 0
11:58 pm 23:58 Mostly Cloudy 42 5.4 28 -2.3 58 58 N 20 31 30.04 1017 10 16.0934 0 0

Powered by AerisWeather